sat.trackr.live / text

‹ back to catalog

STARLINK-11652 [DTC]

NORAD 63315 · 2025-057J

PAYLOAD ACTIVE UNKNOWN

§ Identity

Operator
Country
US
Launch date
2025-03-18
Launch site
AFETR
Launch vehicle
Mass (kg)
RCS (m²)

Purposes: comms

External: N2YO · Heavens-Above · Gunter

§ Orbital elements

Epoch: 2026-09-20T19:10:46.591968Z

Period
91.67 min
Inclination
42.9999°
Eccentricity
0.0001387
Mean motion
15.70867524 rev/d
Perigee alt
355.5 km
Apogee alt
357.4 km
Semi-major
6,734.6 km
B*
1.0292e-3
RAAN
168.4396°
Arg perigee
242.0225°
Mean anomaly
118.0503°
Rev number
8,789

§ Raw data

STARLINK-11652 [DTC]1 63315U 25057J   26263.79915037  .00133908  00000+0  10292-2 0  99962 63315  42.9999 168.4396 0001387 242.0225 118.0503 15.70867524 87890

JSON: /api/v1/satellites/63315 · /tle

For live sub-satellite position, see the globe view (requires WebGL).

§ Visibility from observer

Set your observer location to see the next 7 days of passes ≥ 10°. The values pass through the URL so the page stays shareable.

No JS? Fill the form by hand. The geolocation button needs JavaScript.